Volver al catálogo

ANNA 1B

ActivoCienciaLEO
NORAD 446·PAYLOAD·🇺🇸 United States

Lanzado Oct 31, 1962 desde Cape Canaveral Space Force Station

Loading…

Próximos Pases (próximas 24 horas)

TLE

ActualizadoSource: Space-Track

Época: Sep 5, 2026, 12:42 UTC

1 00446U 62060A   26248.52977904 -.00000117  00000-0  15981-4 0  9991
2 00446  50.1416  64.7690 0069971 253.9073 140.8654 13.35365695114444

Sigue ANNA 1B en tiempo real con AllMySat

Download on the App Store